This is the latest recevied weather packets stored in our database for station/object N5PUP-13. If no packets are shown the sender has not sent any weather packets the latest 10 day(s).
| Time | Temp. | Humidity | Pressure | Rain* | Wind** | Luminosity | Snow |
|---|---|---|---|---|---|---|---|
| 1787685900 | 31.67° C | 55% | 1018 hPa | 0 mm | - | - | - |
| 1787685600 | 31.67° C | 55% | 1018.1 hPa | 0 mm | - | - | - |
| 1787685300 | 31.67° C | 55% | 1018 hPa | 0 mm | - | - | - |
| 1787685000 | 31.11° C | 55% | 1017.9 hPa | 0 mm | - | - | - |
| 1787684700 | 31.11° C | 55% | 1017.9 hPa | 0 mm | - | - | - |
| 1787684400 | 31.11° C | 55% | 1017.7 hPa | 0 mm | - | - | - |
| 1787684100 | 31.11° C | 56% | 1017.5 hPa | 0 mm | - | - | - |
| 1787683800 | 31.11° C | 56% | 1017.4 hPa | 0 mm | - | - | - |
| 1787683500 | 31.11° C | 57% | 1017.4 hPa | 0 mm | - | - | - |
| 1787683200 | 31.11° C | 57% | 1017.1 hPa | 0 mm | - | - | - |
| 1787682900 | 30.56° C | 57% | 1017.1 hPa | 0 mm | - | - | - |
| 1787682600 | 31.11° C | 57% | 1017.1 hPa | 0 mm | - | - | - |
| 1787682300 | 31.11° C | 56% | 1017.2 hPa | 0 mm | - | - | - |
| 1787682000 | 31.11° C | 55% | 1017 hPa | 0 mm | - | - | - |
| 1787681700 | 31.11° C | 56% | 1016.8 hPa | 0 mm | - | - | - |
| 1787681400 | 31.11° C | 55% | 1016.6 hPa | 0 mm | - | - | - |
| 1787681100 | 31.67° C | 56% | 1016.5 hPa | 0 mm | - | - | - |
| 1787680800 | 31.67° C | 54% | 1016.5 hPa | 0 mm | - | - | - |
| 1787680500 | 31.67° C | 53% | 1016.4 hPa | 0 mm | - | - | - |
| 1787680200 | 32.22° C | 53% | 1016.3 hPa | 0 mm | - | - | - |
| 1787679900 | 32.22° C | 53% | 1016.4 hPa | 0 mm | - | - | - |
| 1787679600 | 32.22° C | 53% | 1016.4 hPa | 0 mm | - | - | - |
| 1787679300 | 31.67° C | 54% | 1016.4 hPa | 0 mm | - | - | - |
| 1787679000 | 32.22° C | 54% | 1016.3 hPa | 0 mm | - | - | - |
| 1787678700 | 32.22° C | 53% | 1016.3 hPa | 0 mm | - | - | - |
* Rain latest hour (hover to see other rain measurements)
** Current wind speed in m/s (hover to see current wind gust speed)